Terug naar catalogus

FASAT B

ActiefWetenschapSSO
NORAD 25395·PAYLOAD·🇨🇱 Chile

Gelanceerd Jul 10, 1998 vanaf Baikonur Cosmodrome

Loading…

Volgende Passages (komende 24 uur)

TLE

VersSource: Space-Track

Epoch: Sep 14, 2026, 10:07 UTC

1 25395U 98043B   26257.42174673  .00000028  00000-0  30872-4 0  9998
2 25395  98.9799 249.5296 0002352 190.4400 169.6731 14.26534918465566

Volg FASAT B in realtime met AllMySat

Download on the App Store